{"data":{"norad_id":55798,"intl_designator":"2023-029C","name":"ONEWEB-0556","alt_names":[],"object_type":"PAYLOAD","status":"ACTIVE","operator":null,"country":"UK","launch_date":"2023-03-09","launch_site_code":"AFETR","launch_vehicle":null,"mission":null,"orbit_class":"UNKNOWN","rcs_meters":null,"size_class":null,"mass_kg":null,"dimensions":null,"purposes":["comms"],"wikipedia_slug":null,"has_3d_model":false,"image_url":null,"decayed_at":null,"tle_current":{"epoch":"2026-09-19T22:22:38.555616Z","epoch_age_seconds":74837,"freshness":"FRESH","line1":"1 55798U 23029C   26262.93239069  .00000135  00000+0  30097-3 0  9999","line2":"2 55798  87.9137 255.5582 0002824  83.8496 276.2959 13.20772272173652","mean_motion":13.20772272,"eccentricity":0.0002824,"inclination_deg":87.9137,"raan_deg":255.5582,"arg_perigee_deg":83.8496,"mean_anomaly_deg":276.2959,"bstar":0.00030097,"rev_number":17365,"period_min":109.02712227744,"perigee_km":1179.6367027835,"apogee_km":1183.9065391727,"semimajor_km":7559.9086209781,"source":"CELESTRAK","updated_at":"2026-09-20T09:00:44.759163Z"}}}